Location: Knobs
(40.8333°S, 175.2333°E)
Time: 01:41:57
(UTC+00:00)

Cosmos 1766 Rocket - Pass Details

Date: 12 June 2024
Orbit: 601 x 629 km, 82.5° (Epoch: 22 July)

Event Time Altitude Azimuth Distance (km) Brightness Sun altitude
Rises 18:17:49 0° 185° (S) 2,896 6.8 -15.2°
Reaches altitude 10° 18:20:05 10° 181° (S) 1,986 6.0 -14.8°
Maximum altitude 18:24:26 62° 99° (E) 694 4.0 -14.0°
Drops below altitude 10° 18:28:46 10° 18° (NNE) 1,971 6.7 -13.2°
Sets 18:31:00 0° 14° (NNE) 2,871 7.5 -12.8°
